Temp
-2 -2 -2 -2 -2 -2 -2 -2 -2 -2 -2 -2 -2 -3 -3 -3 -4 -4 -4 -4 -4 -4 -5 -5 -5 -5 -6 -7 -6 -6 -7 -6 -5 -6 -7 -7 -8 -8 -8 -8 -8 -8 -7 -8 -7
-2 -2 -2 -2 -2 -2 -2 -2 -2 -2 -2 -2 -2 -2 -3 -3 -3 -3 -4 -4 -4 -4 -4 -4 -5 -5 -5 -6 -7 -6 -6 -6 -6 -6 -6 -8 -8 -8 -8 -8 -8 -8 -8 -8 -8
-2 -2 -2 -2 -2 -2 -2 -2 -2 -2 -2 -2 -2 -3 -3 -3 -3 -4 -4 -4 -4 -4 -4 -4 -4 -5 -5 -5 -7 -6 -6 -6 -6 -6 -6 -7 -8 -8 -8 -8 -8 -8 -8 -8 -8
-2 -2 -2 -2 -2 -3 -3 -3 -3 -3 -3 -3 -3 -3 -4 -4 -4 -4 -4 -4 -4 -4 -5 -4 -4 -5 -6 -6 -6 -6 -7 -6 -6 -6 -6 -7 -8 -8 -8 -8 -8 -8 -8 -8 -8
-3 -3 -3 -3 -3 -3 -3 -3 -3 -3 -3 -4 -4 -4 -4 -4 -5 -4 -5 -5 -5 -5 -5 -5 -5 -4 -5 -6 -6 -6 -7 -6 -6 -6 -7 -7 -8 -8 -7 -8 -8 -7 -8 -8 -8
-3 -3 -3 -3 -3 -3 -3 -3 -3 -3 -3 -4 -4 -4 -4 -5 -5 -4 -4 -5 -5 -6 -6 -6 -6 -5 -4 -4 -4 -5 -5 -7 -6 -7 -7 -8 -7 -8 -8 -8 -8 -8 -8 -8 -8
-3 -3 -3 -3 -3 -3 -3 -3 -3 -3 -4 -3 -3 -4 -4 -6 -5 -5 -4 -4 -4 -5 -6 -5 -5 -5 -5 -5 -5 -4 -4 -5 -7 -7 -7 -7 -7 -8 -8 -8 -8 -8 -8 -8 -7
-3 -3 -3 -3 -4 -3 -3 -3 -3 -3 -3 -3 -3 -3 -3 -4 -4 -4 -4 -4 -4 -4 -5 -5 -5 -5 -5 -6 -6 -5 -4 -4 -6 -7 -8 -7 -7 -8 -8 -8 -8 -8 -8 -8 -7
-4 -4 -3 -4 -4 -4 -4 -3 -3 -4 -4 -3 -3 -3 -3 -3 -3 -3 -3 -3 -3 -4 -5 -5 -4 -5 -6 -6 -6 -6 -5 -5 -6 -7 -7 -8 -6 -7 -8 -8 -8 -8 -8 -8 -8
-4 -4 -3 -4 -4 -3 -3 -3 -4 -4 -4 -3 -3 -3 -3 -3 -3 -4 -4 -4 -3 -3 -4 -5 -5 -5 -5 -7 -6 -7 -6 -6 -6 -7 -8 -8 -8 -7 -7 -8 -7 -7 -8 -8 -8
-4 -4 -3 -4 -3 -3 -4 -4 -4 -4 -4 -4 -4 -4 -3 -3 -3 -3 -3 -3 -4 -4 -4 -5 -5 -4 -7 -8 -8 -8 -7 -6 -7 -7 -8 -8 -8 -7 -7 -7 -8 -7 -7 -8 -8
-4 -4 -4 -4 -4 -4 -4 -4 -4 -4 -4 -3 -4 -3 -3 -3 -3 -3 -3 -4 -4 -5 -5 -5 -4 -7 -9 -9 -8 -9 -8 -7 -7 -7 -8 -8 -8 -8 -7 -7 -7 -8 -7 -8 -8
-4 -4 -4 -4 -4 -4 -4 -4 -4 -4 -4 -4 -4 -4 -3 -3 -3 -4 -4 -4 -5 -5 -6 -6 -6 -9 -10 -10 -9 -9 -8 -8 -8 -8 -8 -8 -8 -8 -8 -7 -7 -7 -8 -8 -8
-4 -4 -4 -4 -4 -4 -4 -4 -4 -4 -4 -4 -4 -4 -4 -4 -4 -4 -4 -4 -5 -6 -7 -7 -9 -10 -11 -11 -10 -10 -10 -9 -9 -8 -8 -8 -8 -8 -8 -8 -7 -6 -7 -7 -7
-5 -5 -5 -5 -5 -5 -5 -5 -5 -5 -5 -4 -5 -5 -5 -4 -4 -5 -5 -5 -7 -8 -9 -10 -11 -11 -11 -11 -11 -10 -10 -10 -9 -9 -9 -8 -8 -7 -8 -8 -8 -7 -6 -6 -7
-5 -5 -5 -5 -5 -5 -5 -5 -5 -5 -5 -5 -5 -5 -5 -6 -6 -6 -6 -8 -10 -10 -11 -11 -12 -12 -12 -11 -11 -11 -11 -11 -10 -10 -10 -8 -8 -8 -8 -8 -7 -7 -7 -7 -7
-5 -5 -5 -5 -5 -6 -6 -6 -6 -6 -6 -5 -6 -5 -6 -7 -8 -8 -8 -9 -10 -11 -10 -12 -12 -12 -12 -11 -11 -11 -11 -11 -11 -11 -10 -9 -9 -8 -8 -8 -7 -6 -7 -7 -7
-5 -5 -5 -6 -6 -6 -7 -7 -6 -6 -6 -6 -6 -6 -7 -8 -9 -10 -11 -12 -11 -11 -11 -13 -12 -12 -12 -12 -11 -11 -12 -12 -11 -10 -10 -10 -9 -8 -8 -8 -7 -7 -6 -6 -6
-6 -6 -6 -7 -7 -7 -7 -7 -7 -7 -6 -7 -7 -7 -8 -9 -10 -12 -12 -12 -12 -11 -12 -12 -13 -12 -13 -13 -12 -12 -12 -12 -13 -11 -10 -10 -9 -8 -7 -8 -7 -7 -6 -6 -6
-7 -7 -7 -7 -7 -7 -7 -7 -7 -7 -7 -8 -8 -8 -9 -10 -11 -12 -13 -12 -12 -12 -12 -13 -12 -12 -12 -12 -12 -13 -13 -12 -13 -13 -11 -10 -9 -9 -8 -8 -8 -8 -8 -7 -7
-7 -7 -8 -8 -8 -8 -8 -8 -8 -8 -8 -8 -8 -9 -9 -11 -12 -12 -13 -13 -13 -12 -12 -12 -12 -12 -12 -12 -12 -13 -13 -13 -12 -11 -11 -9 -9 -9 -9 -9 -8 -8 -8 -7 -7
-7 -7 -8 -8 -8 -8 -9 -8 -8 -8 -9 -9 -9 -9 -9 -10 -12 -12 -13 -13 -13 -13 -12 -13 -12 -12 -12 -12 -11 -12 -12 -12 -13 -13 -11 -11 -9 -9 -10 -9 -8 -8 -8 -8 -7
-8 -8 -8 -9 -9 -9 -9 -9 -9 -10 -10 -10 -10 -10 -10 -11 -12 -13 -13 -14 -13 -13 -13 -13 -13 -13 -12 -12 -12 -12 -12 -12 -12 -12 -10 -11 -9 -9 -10 -10 -9 -9 -8 -9 -8
-8 -8 -9 -9 -9 -10 -9 -9 -10 -10 -10 -10 -10 -11 -11 -12 -12 -12 -13 -14 -14 -14 -13 -13 -13 -13 -12 -12 -12 -13 -12 -11 -11 -12 -11 -10 -10 -10 -10 -10 -9 -9 -9 -9 -8
-9 -9 -9 -9 -10 -10 -10 -10 -10 -11 -11 -11 -11 -11 -12 -12 -13 -13 -13 -14 -14 -14 -14 -14 -13 -13 -13 -13 -13 -12 -12 -12 -11 -11 -12 -11 -10 -10 -9 -9 -9 -10 -10 -10 -10
-9 -9 -9 -10 -10 -10 -10 -11 -11 -11 -11 -11 -12 -13 -12 -12 -13 -14 -14 -14 -13 -13 -14 -14 -14 -13 -13 -13 -12 -12 -12 -11 -12 -11 -11 -10 -10 -10 -9 -10 -10 -10 -10 -10 -10
-10 -10 -10 -10 -11 -10 -11 -11 -11 -12 -12 -12 -12 -13 -13 -13 -14 -14 -13 -13 -13 -13 -13 -13 -14 -14 -13 -13 -12 -12 -13 -12 -11 -11 -11 -11 -11 -10 -10 -10 -10 -10 -10 -10 -10
Height
5918 5918 5917 5917 5916 5916 5916 5916 5916 5915 5915 5915 5916 5915 5914 5914 5914 5913 5913 5912 5912 5911 5910 5911 5915 5915 5914 5914 5912 5911 5909 5908 5908 5909 5906 5905 5901 5905 5907 5908 5908 5906 5903 5902 5899
5915 5915 5915 5915 5914 5914 5913 5913 5912 5912 5911 5911 5911 5911 5911 5911 5910 5911 5911 5910 5909 5909 5908 5907 5910 5912 5912 5912 5912 5911 5909 5908 5908 5909 5909 5906 5905 5902 5906 5907 5908 5908 5904 5902 5901
5912 5912 5911 5911 5910 5909 5909 5908 5907 5907 5907 5906 5906 5906 5906 5907 5908 5907 5906 5908 5908 5908 5907 5905 5905 5907 5909 5909 5909 5909 5909 5908 5907 5909 5908 5906 5905 5906 5904 5906 5907 5909 5908 5904 5901
5908 5907 5907 5906 5905 5904 5904 5903 5903 5903 5902 5902 5901 5901 5901 5902 5903 5901 5901 5901 5902 5902 5902 5901 5901 5904 5903 5903 5903 5907 5907 5908 5908 5907 5908 5905 5905 5905 5904 5904 5905 5907 5909 5906 5902
5904 5904 5903 5903 5902 5902 5901 5901 5900 5900 5899 5898 5897 5898 5898 5898 5894 5893 5896 5895 5896 5895 5896 5896 5898 5897 5899 5898 5897 5900 5904 5906 5905 5905 5905 5906 5904 5904 5903 5902 5904 5905 5907 5906 5904
5902 5902 5902 5902 5901 5900 5899 5899 5899 5898 5896 5895 5895 5894 5894 5893 5890 5888 5889 5890 5890 5890 5889 5891 5892 5890 5892 5894 5893 5896 5898 5902 5904 5902 5902 5903 5903 5903 5904 5902 5902 5902 5905 5905 5903
5901 5900 5900 5900 5899 5898 5897 5897 5895 5894 5893 5892 5891 5891 5891 5889 5886 5886 5883 5883 5882 5882 5881 5881 5882 5883 5886 5887 5887 5887 5889 5897 5901 5899 5899 5899 5901 5901 5901 5900 5900 5900 5899 5903 5903
5899 5899 5898 5897 5896 5894 5894 5893 5892 5891 5889 5887 5887 5887 5887 5883 5882 5880 5879 5877 5875 5876 5877 5875 5873 5874 5876 5879 5879 5880 5881 5888 5896 5896 5894 5894 5896 5898 5896 5898 5899 5897 5898 5900 5902
5896 5895 5895 5894 5892 5891 5890 5888 5887 5886 5883 5882 5882 5882 5881 5879 5877 5874 5873 5871 5868 5866 5867 5867 5866 5867 5867 5869 5871 5872 5876 5881 5887 5890 5890 5888 5890 5895 5893 5893 5895 5894 5896 5896 5899
5892 5891 5890 5890 5888 5886 5885 5884 5883 5880 5879 5878 5877 5878 5874 5873 5872 5869 5866 5864 5861 5858 5857 5857 5856 5857 5857 5858 5863 5871 5872 5874 5876 5880 5882 5882 5883 5888 5888 5888 5890 5891 5891 5894 5896
5887 5887 5886 5884 5882 5882 5880 5879 5879 5876 5874 5872 5871 5870 5868 5865 5863 5861 5856 5853 5852 5851 5848 5847 5846 5843 5849 5856 5858 5860 5862 5864 5870 5869 5869 5874 5875 5882 5882 5884 5886 5888 5887 5888 5892
5883 5881 5880 5879 5877 5876 5875 5873 5872 5870 5866 5866 5865 5862 5859 5857 5853 5849 5847 5845 5843 5840 5839 5837 5833 5834 5840 5846 5848 5850 5852 5857 5862 5862 5862 5865 5866 5872 5877 5877 5881 5882 5883 5884 5887
5877 5876 5873 5872 5871 5870 5868 5868 5866 5864 5861 5858 5856 5854 5852 5848 5844 5839 5837 5833 5831 5829 5827 5826 5826 5826 5830 5836 5839 5842 5845 5850 5853 5853 5856 5856 5859 5864 5869 5870 5873 5877 5879 5879 5881
5871 5869 5868 5867 5867 5863 5862 5861 5860 5858 5854 5853 5849 5844 5841 5838 5834 5830 5825 5823 5820 5816 5813 5810 5811 5813 5818 5824 5831 5834 5842 5843 5844 5845 5847 5847 5849 5855 5862 5863 5867 5871 5872 5874 5877
5865 5863 5862 5860 5858 5857 5855 5853 5852 5850 5846 5845 5840 5835 5830 5827 5824 5819 5815 5811 5808 5802 5799 5796 5798 5805 5810 5819 5827 5830 5835 5834 5835 5836 5836 5842 5840 5848 5852 5857 5861 5864 5864 5866 5870
5858 5857 5855 5854 5852 5850 5847 5846 5844 5843 5837 5835 5831 5826 5820 5814 5810 5806 5803 5800 5796 5792 5789 5789 5791 5797 5804 5813 5817 5824 5823 5825 5826 5827 5827 5838 5835 5839 5846 5849 5855 5859 5858 5860 5862
5850 5850 5848 5846 5845 5842 5839 5838 5836 5833 5830 5827 5822 5817 5811 5806 5801 5797 5793 5790 5790 5787 5784 5784 5787 5793 5799 5805 5809 5814 5817 5818 5820 5821 5822 5826 5827 5831 5837 5842 5848 5850 5850 5853 5853
5842 5842 5841 5838 5836 5834 5832 5830 5827 5823 5821 5818 5814 5808 5804 5799 5794 5791 5787 5786 5786 5783 5780 5781 5787 5792 5797 5800 5806 5809 5811 5812 5812 5816 5818 5820 5821 5828 5834 5837 5841 5838 5841 5845 5847
5834 5833 5833 5830 5827 5825 5823 5820 5817 5814 5812 5809 5804 5802 5798 5793 5791 5787 5786 5785 5784 5782 5781 5781 5785 5789 5792 5794 5799 5800 5803 5805 5806 5809 5810 5815 5818 5823 5829 5829 5832 5831 5834 5838 5842
5826 5825 5824 5822 5819 5816 5814 5812 5808 5806 5803 5800 5797 5794 5791 5788 5785 5784 5783 5783 5783 5782 5780 5781 5783 5787 5789 5791 5792 5791 5795 5800 5800 5799 5803 5807 5811 5815 5823 5823 5828 5830 5830 5833 5837
5816 5815 5814 5812 5810 5807 5804 5802 5799 5797 5795 5792 5788 5786 5783 5782 5781 5780 5780 5780 5781 5780 5777 5779 5781 5784 5786 5789 5790 5791 5790 5795 5794 5797 5799 5805 5808 5814 5817 5819 5822 5827 5828 5831 5834
5806 5805 5803 5801 5801 5798 5796 5793 5791 5788 5786 5783 5780 5778 5776 5774 5776 5775 5776 5774 5776 5778 5775 5775 5776 5776 5779 5780 5782 5785 5787 5789 5788 5793 5795 5797 5801 5809 5811 5813 5817 5822 5824 5827 5830
5796 5795 5793 5792 5790 5789 5787 5785 5783 5779 5777 5774 5772 5771 5769 5767 5768 5768 5769 5770 5770 5771 5771 5772 5770 5772 5774 5777 5776 5776 5778 5781 5784 5784 5789 5793 5797 5803 5803 5807 5809 5813 5815 5821 5825
5787 5786 5784 5783 5782 5781 5779 5777 5776 5773 5769 5766 5764 5764 5762 5760 5759 5760 5761 5764 5765 5764 5764 5765 5766 5766 5769 5770 5769 5771 5774 5776 5776 5780 5787 5788 5792 5798 5800 5802 5804 5806 5810 5813 5815
5777 5777 5775 5775 5773 5773 5771 5770 5768 5765 5763 5760 5758 5757 5756 5754 5754 5752 5752 5754 5757 5758 5757 5756 5759 5762 5764 5761 5761 5763 5766 5768 5773 5776 5780 5785 5789 5794 5794 5796 5796 5801 5803 5807 5809
5768 5768 5767 5766 5765 5764 5762 5762 5761 5758 5755 5753 5751 5750 5749 5747 5747 5747 5745 5746 5750 5752 5751 5750 5750 5754 5760 5757 5756 5757 5757 5760 5766 5770 5773 5779 5783 5786 5787 5789 5792 5795 5796 5800 5802
5758 5757 5757 5757 5756 5755 5754 5753 5752 5750 5748 5746 5744 5744 5743 5741 5739 5739 5740 5742 5742 5744 5744 5744 5745 5747 5751 5753 5750 5749 5746 5749 5756 5763 5769 5772 5774 5775 5779 5783 5786 5789 5793 5794 5796
Wind_Speed
12 13 14 15 16 17 17 17 16 16 16 15 14 15 16 15 14 13 14 14 14 14 16 16 15 16 16 13 14 11 11 9 5 3 9 13 17 15 22 22 21 16 18 20 22
19 19 19 20 21 22 23 23 23 23 23 22 21 20 18 17 18 18 17 16 17 17 17 19 16 19 21 20 19 18 13 7 4 6 2 12 12 15 14 17 18 18 13 15 18
19 18 18 18 19 20 21 22 24 24 26 26 27 26 25 24 22 19 22 19 19 19 21 22 20 20 21 24 25 24 19 13 10 5 7 6 8 9 11 11 15 16 16 11 12
17 18 19 19 19 20 21 23 23 23 24 25 25 26 24 24 26 28 26 25 23 23 23 25 26 20 25 27 31 26 25 20 13 11 15 4 4 5 5 6 14 9 10 11 9
12 8 6 7 9 9 10 10 10 11 11 11 12 13 15 16 20 24 24 28 26 26 25 25 24 28 24 29 33 31 29 27 21 18 14 11 2 3 4 5 6 6 7 10 10
6 7 7 7 9 11 12 12 11 12 12 13 14 14 13 11 20 23 22 22 25 29 29 29 27 31 29 31 34 32 30 29 26 20 18 21 8 5 8 0 3 11 3 4 8
7 7 9 10 13 15 16 16 17 17 17 16 16 17 16 15 23 23 25 27 26 25 33 35 35 36 32 31 34 36 36 28 27 25 23 24 20 16 17 7 3 4 12 11 6
11 12 13 14 16 18 17 16 17 19 22 24 21 21 20 24 25 27 29 31 33 30 30 37 41 42 39 35 35 38 38 29 23 30 27 26 23 21 23 14 9 5 7 3 5
15 17 18 20 21 21 20 21 23 24 24 24 24 24 25 28 31 31 31 33 36 37 36 39 40 43 44 42 40 40 38 33 24 29 32 31 29 25 33 21 17 14 9 4 4
21 22 23 23 25 22 23 24 24 23 22 23 24 27 30 31 32 33 36 38 39 42 43 43 45 44 47 47 44 36 34 35 31 32 31 35 36 28 31 29 23 17 12 10 5
23 25 26 24 23 22 24 24 22 23 25 29 30 30 36 35 35 38 41 40 39 42 48 48 50 53 49 43 40 39 39 38 36 34 37 35 39 34 34 31 33 20 15 10 6
26 27 26 26 25 26 26 24 24 28 32 32 34 36 37 39 41 39 36 36 36 39 44 51 56 55 51 44 43 41 40 40 35 35 40 41 44 38 36 35 31 17 18 11 11
28 29 29 28 29 30 29 26 28 30 32 34 35 37 39 37 37 41 41 41 39 39 42 49 56 54 50 45 43 41 39 35 34 34 37 48 49 46 42 41 39 27 22 19 17
31 31 31 32 32 30 29 29 31 31 33 36 40 42 39 40 42 39 41 44 41 38 38 46 55 54 50 48 43 41 29 31 30 36 37 48 55 51 45 42 36 34 27 25 22
32 33 32 34 34 32 32 33 31 34 36 38 37 40 44 44 43 39 42 43 34 26 31 40 44 45 46 43 39 35 25 29 32 36 40 43 55 51 46 44 39 36 33 27 26
36 34 34 32 32 32 34 34 35 35 38 37 38 42 43 44 42 41 43 34 23 23 27 28 35 37 37 38 41 34 31 27 33 36 37 46 51 56 47 46 40 34 37 33 31
34 32 32 32 32 34 36 34 35 36 37 37 38 40 42 40 36 33 37 32 21 26 27 21 24 24 31 33 43 39 31 28 34 34 35 37 49 53 45 46 44 41 42 39 40
34 32 33 33 33 35 33 33 35 36 36 36 37 38 37 35 31 26 26 29 27 26 24 18 18 21 26 31 39 43 35 31 34 36 35 28 44 50 41 45 39 44 45 43 40
34 33 34 34 34 35 33 35 35 36 36 36 37 34 33 31 26 25 25 25 26 20 20 21 21 25 23 26 32 33 38 34 30 36 34 36 38 46 51 43 39 41 40 37 33
36 36 34 35 36 35 35 35 36 36 36 34 33 33 28 23 27 27 26 24 22 23 22 26 24 24 27 28 31 28 32 39 27 31 36 32 37 36 27 27 31 32 32 28 28
38 37 37 37 36 35 34 34 35 36 33 32 33 30 30 20 23 30 30 29 23 23 26 25 28 28 29 27 29 29 30 32 35 31 27 35 38 32 12 13 23 23 18 18 19
39 38 37 36 35 33 33 34 35 34 31 31 32 30 29 24 18 28 31 31 29 23 25 22 24 29 21 22 27 33 36 31 32 32 32 25 30 22 13 6 18 21 18 24 27
33 33 34 34 33 33 33 35 33 31 30 32 32 29 26 25 21 22 29 28 30 28 28 28 33 26 24 17 18 21 27 32 36 21 36 30 32 20 19 14 13 20 20 15 16
35 33 32 33 31 31 33 33 31 29 30 31 32 28 23 21 22 22 24 27 26 27 32 33 30 30 29 23 24 18 23 33 41 33 25 34 31 23 23 20 20 19 20 27 26
34 32 31 31 31 31 33 33 30 31 32 29 29 25 21 19 18 22 23 23 27 33 31 35 30 29 21 25 25 24 25 25 34 33 37 26 33 26 28 28 29 22 23 21 27
34 32 32 31 32 33 33 32 29 30 29 29 26 22 23 22 17 16 20 20 22 32 33 36 39 34 21 25 29 25 28 32 24 28 27 38 28 30 33 33 31 28 25 30 26
34 33 34 34 35 34 33 31 29 27 28 25 27 24 22 22 21 20 20 19 20 23 27 35 39 37 34 32 34 32 37 12 28 24 25 26 31 34 33 30 31 30 28 29 30
Wind_Direction
295 296 296 296 297 298 297 296 294 294 293 291 288 292 297 297 294 287 283 278 273 270 271 271 251 253 247 249 230 222 204 223 226 234 112 90 89 64 46 36 36 19 47 43 47
292 290 290 290 291 292 291 292 292 291 289 287 286 284 282 284 286 286 283 279 274 270 264 265 258 250 247 240 240 243 248 246 252 244 162 95 80 81 52 30 26 27 13 46 38
296 296 294 291 289 284 280 277 277 278 279 281 282 283 282 280 279 282 280 279 280 280 277 270 263 254 249 243 242 247 250 242 255 277 305 120 101 75 63 50 25 41 19 14 44
284 281 280 280 282 282 283 282 281 280 279 280 281 282 289 290 285 276 269 272 270 269 266 271 273 257 256 252 245 241 251 252 255 288 323 316 84 95 53 64 76 14 30 11 30
283 289 299 306 309 314 322 328 335 328 316 306 301 306 308 312 292 282 277 271 268 262 259 260 267 266 255 255 254 252 246 256 259 279 323 288 262 247 79 54 10 338 62 39 21
286 290 301 317 322 318 316 319 322 312 306 309 302 301 313 318 287 292 293 285 271 267 266 261 253 254 256 262 269 264 260 250 259 268 294 303 225 237 301 66 273 293 348 97 51
294 293 300 305 309 305 305 308 304 304 302 298 293 290 295 288 294 298 290 280 271 263 262 262 260 259 255 248 255 261 262 256 250 259 267 286 259 255 263 271 130 244 282 38 64
279 282 288 297 301 300 301 298 299 297 293 286 289 290 298 292 295 293 289 286 284 272 259 265 265 259 256 251 245 253 260 261 243 252 258 263 255 247 257 249 243 231 239 347 39
286 289 293 297 298 294 296 293 299 302 299 292 285 292 291 291 293 293 291 287 286 276 261 257 262 262 256 251 249 246 253 256 243 242 246 255 247 233 250 248 240 255 174 211 340
290 290 291 293 293 291 292 293 296 294 293 294 293 294 297 298 297 298 296 293 286 276 266 260 261 257 255 252 250 256 254 252 242 237 238 243 248 233 227 235 234 225 189 183 224
289 290 291 294 291 290 293 290 290 287 297 302 301 300 301 300 296 293 289 286 284 278 269 259 261 265 255 253 251 247 247 243 239 237 224 227 235 224 235 236 246 237 218 208 213
290 293 293 293 291 292 295 291 294 299 300 298 300 300 299 299 296 299 293 291 286 280 274 266 269 254 252 249 249 245 244 242 238 233 223 217 224 227 234 246 242 226 222 209 227
293 291 292 294 294 293 292 290 293 297 296 299 300 302 302 302 301 298 297 294 291 285 275 272 266 249 248 248 247 247 245 244 242 232 226 219 223 227 233 238 245 245 246 229 223
290 289 289 289 293 294 288 287 292 292 294 300 304 305 303 303 302 302 298 295 297 290 273 265 258 244 240 239 242 246 247 243 237 230 228 226 228 226 230 241 244 247 245 249 248
287 287 287 289 290 288 286 288 290 294 299 302 306 305 306 305 304 305 303 302 302 292 268 267 260 240 236 240 245 250 243 244 239 234 231 221 233 227 230 232 241 254 261 253 255
286 286 290 289 288 286 287 290 295 296 298 302 305 308 308 309 311 313 311 314 317 310 302 282 259 238 229 232 234 233 231 236 232 230 234 221 233 234 231 233 235 252 259 257 258
285 284 287 289 289 288 289 293 294 295 300 304 309 309 309 311 311 311 310 314 317 317 302 293 256 229 223 230 228 229 230 242 238 238 238 232 230 236 239 238 236 244 247 248 252
286 284 287 291 294 294 295 294 292 296 301 306 306 308 311 311 308 305 302 303 314 313 296 262 233 215 227 228 232 232 234 244 250 238 237 240 235 232 246 246 247 247 244 243 245
284 284 288 291 294 297 296 294 294 297 302 305 305 308 309 311 302 285 287 298 300 304 288 245 229 218 232 228 226 226 228 234 247 247 248 231 237 234 238 243 234 238 243 240 240
286 289 291 292 293 294 292 293 294 299 302 302 306 307 307 303 294 287 283 285 280 289 277 259 257 230 234 237 234 239 235 233 242 248 239 235 235 245 233 251 229 235 250 248 236
289 290 291 290 290 289 288 290 294 298 300 303 303 301 303 292 280 272 275 279 278 272 269 272 266 257 242 236 252 245 255 256 252 236 243 238 239 243 251 226 222 228 235 230 222
288 288 288 288 287 286 288 292 295 297 300 302 299 300 304 297 272 261 256 267 274 269 264 268 274 278 276 259 253 251 245 249 248 242 241 241 231 223 225 214 219 229 224 224 220
287 288 288 286 286 286 288 293 294 296 298 297 294 299 300 298 282 264 256 259 262 262 262 261 273 269 265 274 263 248 241 238 241 248 238 243 236 225 230 215 200 213 200 204 217
287 288 286 284 283 282 287 291 291 290 290 288 291 296 296 295 284 274 254 243 248 257 267 270 272 267 277 271 272 263 251 243 248 243 246 239 242 233 233 225 217 215 234 229 221
283 284 283 284 281 282 285 287 284 285 284 285 288 290 287 284 285 290 282 248 239 246 251 265 264 267 270 276 267 248 249 225 244 255 243 250 250 244 233 228 232 243 219 238 249
276 279 279 280 280 280 279 282 280 282 282 285 283 279 280 276 270 274 272 271 249 248 259 261 268 272 266 281 292 271 269 220 227 241 243 244 249 238 234 232 238 245 251 247 242
274 273 275 277 279 280 280 279 279 285 283 281 278 282 272 270 265 266 273 268 271 257 258 255 259 267 274 277 275 270 268 210 206 215 224 237 246 252 244 249 246 245 251 256 252